Location: Cisewo
(53.3833°N, 14.9000°E)
Time: 12:09:39
(UTC+00:00)

Cosmos 2263 Rocket - Pass Details

Date: 18 April 2021
Orbit: 824 x 848 km, 71.0° (Epoch: 16 May)

Event Time Altitude Azimuth Distance (km) Brightness Sun altitude
Exits shadow 21:42:46 36° 100° (E) 1,279 2.9 -23.4°
Drops below altitude 10° 21:47:29 10° 44° (NE) 2,438 4.9 -23.7°
Sets 21:50:05 0° 36° (NE) 3,378 5.8 -23.8°
